Date String (YYYY-MM-DD hh:mm:ss) UTC,Instrument flags,absolute air pressure of the measurement (hPa),sample flow rate (lpm),inlet stack bypass flow (lpm),air temperature of the measurement (°C),ambient temperature measured by the external sensor (°C),aerosol sample conditioner tube jacket temperature (°C),OPC LED temperature (°C),internal box temperature (°C),relative humidity of the measurement (%),span deviation,mass concentration of particles derived from Lorenz-Mie calculation of OPC scattering (μg/m³),mass concentration of particles derived from Lorenz-Mie calculation of OPC scattering (μg/m³),mass concentration of particles derived from Lorenz-Mie calculation of OPC scattering (μg/m³)
DateTimeUTC,F1_M11,P_M11,Q1_M11,Q2_M11,T1_M11,T2_M11,T3_M11,T4_M11,T5_M11,U1_M11,ZSPAN_M11,X0_M11,X2_M11,X1_M11
2024-02-21 02:00:00,SystemResetWarning,0828.7,5.00,000.00,025.8,025.1,000.0,034.2,027.6,14.0,0000.0,0001.04,0000.63,0000.52
2024-02-21 02:01:00,SystemResetWarning,0828.7,5.00,000.00,025.8,025.1,000.0,034.2,027.6,14.2,0000.0,0001.01,0000.63,0000.52
2024-02-21 02:02:00,SystemResetWarning,0828.6,5.00,000.00,025.8,025.1,000.0,034.2,027.6,14.1,0000.0,0000.97,0000.64,0000.52
2024-02-21 02:03:00,SystemResetWarning,0828.6,5.01,000.00,025.8,025.1,000.0,034.2,027.6,14.2,0000.0,0000.95,0000.63,0000.52
2024-02-21 02:04:00,SystemResetWarning,0828.6,5.00,000.00,025.8,025.1,000.0,034.2,027.6,14.2,0000.0,0000.95,0000.64,0000.51
2024-02-21 02:05:00,SystemResetWarning,0828.6,4.99,000.00,025.8,025.1,000.0,034.2,027.7,14.2,0000.0,0000.82,0000.61,0000.50
2024-02-21 02:06:00,SystemResetWarning,0828.6,5.00,000.00,025.8,025.1,000.0,034.2,027.6,14.3,0000.0,0000.79,0000.59,0000.48
2024-02-21 02:07:00,SystemResetWarning,0828.7,5.00,000.00,025.8,025.1,000.0,034.2,027.6,14.2,0000.0,0000.74,0000.55,0000.46
2024-02-21 02:08:00,SystemResetWarning,0828.8,4.99,000.00,025.8,025.1,000.0,034.2,027.7,14.1,0000.0,0000.71,0000.53,0000.44
2024-02-21 02:09:00,SystemResetWarning,0828.8,5.00,000.00,025.8,025.1,000.0,034.2,027.7,14.2,0000.0,0000.69,0000.51,0000.42
2024-02-21 02:10:00,SystemResetWarning,0828.7,4.99,000.00,025.8,025.1,000.0,034.2,027.6,14.4,0000.0,0000.75,0000.51,0000.40
2024-02-21 02:11:00,SystemResetWarning,0828.7,5.01,000.00,025.8,025.1,000.0,034.2,027.6,14.4,0000.0,0000.90,0000.51,0000.38
2024-02-21 02:12:00,SystemResetWarning,0828.7,5.01,000.00,025.8,025.1,000.0,034.2,027.6,14.1,0000.0,0000.98,0000.52,0000.38
2024-02-21 02:13:00,SystemResetWarning,0828.7,5.00,000.00,025.8,025.1,000.0,034.2,027.6,14.0,0000.0,0000.95,0000.50,0000.38
2024-02-21 02:14:00,SystemResetWarning,0828.7,4.99,000.00,025.8,025.1,000.0,034.2,027.6,14.3,0000.0,0000.95,0000.50,0000.38
2024-02-21 02:15:00,SystemResetWarning,0828.8,4.99,000.00,025.8,025.1,000.0,034.2,027.6,14.5,0000.0,0001.00,0000.52,0000.38
2024-02-21 02:16:00,SystemResetWarning,0828.8,5.00,000.00,025.8,025.1,000.0,034.2,027.7,14.3,0000.0,0001.01,0000.51,0000.38
2024-02-21 02:17:00,SystemResetWarning,0828.8,5.00,000.00,025.8,025.1,000.0,034.2,027.6,14.4,0000.0,0000.99,0000.51,0000.39
2024-02-21 02:18:00,SystemResetWarning,0828.7,5.00,000.00,025.8,025.1,000.0,034.2,027.6,14.6,0000.0,0001.00,0000.52,0000.39
2024-02-21 02:19:00,SystemResetWarning,0828.8,4.99,000.00,025.8,025.1,000.0,034.2,027.6,14.7,0000.0,0001.05,0000.54,0000.40
2024-02-21 02:20:00,SystemResetWarning,0828.8,4.99,000.00,025.8,025.1,000.0,034.2,027.6,14.7,0000.0,0001.06,0000.54,0000.40
2024-02-21 02:21:00,SystemResetWarning,0829.0,5.00,000.00,025.8,025.1,000.0,034.3,027.6,14.7,0000.0,0001.00,0000.52,0000.39
2024-02-21 02:22:00,SystemResetWarning,0828.9,5.00,000.00,025.8,025.1,000.0,034.3,027.6,14.7,0000.0,0000.84,0000.51,0000.39
2024-02-21 02:23:00,SystemResetWarning,0829.0,5.01,000.00,025.8,025.1,000.0,034.3,027.6,14.7,0000.0,0000.74,0000.48,0000.38
2024-02-21 02:24:00,SystemResetWarning,0829.0,5.01,000.00,025.8,025.1,000.0,034.3,027.6,14.6,0000.0,0000.74,0000.47,0000.36
2024-02-21 02:25:00,SystemResetWarning,0829.0,5.00,000.00,025.8,025.0,000.0,034.3,027.6,14.6,0000.0,0000.78,0000.48,0000.36
2024-02-21 02:26:00,SystemResetWarning,0828.8,5.00,000.00,025.7,025.0,000.0,034.3,027.5,14.6,0000.0,0000.74,0000.47,0000.35
2024-02-21 02:27:00,SystemResetWarning,0828.8,5.00,000.00,025.7,025.0,000.0,034.2,027.5,14.6,0000.0,0000.73,0000.46,0000.35
2024-02-21 02:28:00,SystemResetWarning,0828.9,5.00,000.00,025.7,025.0,000.0,034.2,027.5,14.6,0000.0,0000.87,0000.48,0000.36
2024-02-21 02:29:00,SystemResetWarning,0828.9,5.00,000.00,025.7,025.0,000.0,034.2,027.5,14.6,0000.0,0001.17,0000.48,0000.36
2024-02-21 02:30:00,SystemResetWarning,0828.9,5.00,000.00,025.7,024.9,000.0,034.2,027.5,14.6,0000.0,0001.14,0000.47,0000.35
2024-02-21 02:31:00,SystemResetWarning,0828.8,5.01,000.00,025.7,024.9,000.0,034.2,027.5,14.6,0000.0,0001.18,0000.49,0000.35
2024-02-21 02:32:00,SystemResetWarning,0828.8,5.01,000.00,025.7,024.9,000.0,034.2,027.4,14.7,0000.0,0001.16,0000.49,0000.36
2024-02-21 02:33:00,SystemResetWarning,0828.8,5.00,000.00,025.7,024.9,000.0,034.2,027.4,14.7,0000.0,0001.21,0000.52,0000.37
2024-02-21 02:34:00,SystemResetWarning,0828.9,5.00,000.00,025.6,024.9,000.0,034.2,027.4,14.7,0000.0,0001.71,0000.56,0000.38
2024-02-21 02:35:00,SystemResetWarning,0829.0,5.00,000.00,025.6,024.9,000.0,034.2,027.4,14.7,0000.0,0001.91,0000.59,0000.39
2024-02-21 02:36:00,SystemResetWarning,0829.0,5.00,000.00,025.6,024.9,000.0,034.2,027.4,14.7,0000.0,0001.86,0000.59,0000.40
2024-02-21 02:37:00,SystemResetWarning,0829.0,5.00,000.00,025.6,024.9,000.0,034.2,027.4,14.7,0000.0,0001.83,0000.58,0000.40
2024-02-21 02:38:00,SystemResetWarning,0829.1,5.00,000.00,025.6,024.9,000.0,034.1,027.4,14.7,0000.0,0001.83,0000.59,0000.41
2024-02-21 02:39:00,SystemResetWarning,0829.1,5.01,000.00,025.6,024.9,000.0,034.1,027.4,14.7,0000.0,0001.86,0000.60,0000.41
2024-02-21 02:40:00,SystemResetWarning,0829.1,5.01,000.00,025.6,024.9,000.0,034.1,027.4,14.7,0000.0,0001.57,0000.64,0000.42
2024-02-21 02:41:00,SystemResetWarning,0829.1,5.00,000.00,025.6,024.9,000.0,034.1,027.4,14.7,0000.0,0001.58,0000.65,0000.43
2024-02-21 02:42:00,SystemResetWarning,0829.0,5.00,000.00,025.6,024.9,000.0,034.1,027.5,14.7,0000.0,0001.57,0000.65,0000.43
2024-02-21 02:43:00,SystemResetWarning,0828.9,4.99,000.00,025.6,024.9,000.0,034.1,027.4,14.6,0000.0,0001.66,0000.67,0000.44
2024-02-21 02:44:00,SystemResetWarning,0828.9,5.00,000.00,025.6,024.9,000.0,034.1,027.3,14.5,0000.0,0001.69,0000.69,0000.44
2024-02-21 02:45:00,SystemResetWarning,0828.9,4.99,000.00,025.6,024.8,000.0,034.1,027.3,14.5,0000.0,0001.35,0000.69,0000.45
2024-02-21 02:46:00,SystemResetWarning,0829.0,5.00,000.00,025.6,024.8,000.0,034.1,027.3,14.6,0000.0,0001.10,0000.68,0000.46
2024-02-21 02:47:00,SystemResetWarning,0829.0,5.00,000.00,025.5,024.8,000.0,034.1,027.3,14.7,0000.0,0001.20,0000.69,0000.46
2024-02-21 02:48:00,SystemResetWarning,0829.0,5.00,000.00,025.5,024.8,000.0,034.1,027.3,14.8,0000.0,0001.22,0000.69,0000.46
2024-02-21 02:49:00,SystemResetWarning,0829.0,5.00,000.00,025.5,024.8,000.0,034.1,027.3,14.8,0000.0,0001.32,0000.71,0000.46
2024-02-21 02:50:00,SystemResetWarning,0829.0,5.00,000.00,025.5,024.8,000.0,034.1,027.3,14.8,0000.0,0001.26,0000.70,0000.47
2024-02-21 02:51:00,SystemResetWarning,0829.1,5.00,000.00,025.5,024.8,000.0,034.1,027.4,14.8,0000.0,0001.17,0000.66,0000.47
2024-02-21 02:52:00,SystemResetWarning,0829.1,5.00,000.00,025.6,024.8,000.0,034.1,027.4,14.8,0000.0,0001.30,0000.69,0000.47
2024-02-21 02:53:00,SystemResetWarning,0829.1,5.01,000.00,025.6,024.9,000.0,034.1,027.4,14.8,0000.0,0001.31,0000.70,0000.46
2024-02-21 02:54:00,SystemResetWarning,0829.1,5.01,000.00,025.6,024.9,000.0,034.1,027.4,14.9,0000.0,0001.55,0000.66,0000.45
2024-02-21 02:55:00,SystemResetWarning,0829.0,5.00,000.00,025.6,024.9,000.0,034.1,027.4,14.9,0000.0,0001.55,0000.65,0000.45
2024-02-21 02:56:00,SystemResetWarning,0829.0,5.00,000.00,025.6,024.9,000.0,034.1,027.4,14.9,0000.0,0001.59,0000.66,0000.44
2024-02-21 02:57:00,SystemResetWarning,0829.0,5.00,000.00,025.6,024.9,000.0,034.1,027.4,14.9,0000.0,0001.60,0000.66,0000.44
2024-02-21 02:58:00,SystemResetWarning,0828.9,5.00,000.00,025.6,024.9,000.0,034.1,027.4,14.9,0000.0,0001.51,0000.66,0000.43
2024-02-21 02:59:00,SystemResetWarning,0829.0,5.00,000.00,025.5,024.8,000.0,034.0,027.3,14.9,0000.0,0001.58,0000.69,0000.43
